Regional Weather Roundup
Issued by NWS

Home | Current Version | Previous Version | Graphics & Text | Print | Product List | Glossary On
Versions: 1 2 3 4 5 6 7 8 9 10 11 12 13 14 15 16 17 18 19 20 21 22 23 24 25 26 27 28 29 30 31 32 33 34 35 36 37 38 39 40 41 42 43 44 45 46 47 48 49 50
000
ASUS43 KLOT 090408
RWRIL

ILLINOIS REGIONAL WEATHER ROUNDUP
NATIONAL WEATHER SERVICE CHICAGO/ROMEOVILLE IL
1000 PM CST MON FEB 08 2016

NOTE: "FAIR" INDICATES FEW OR NO CLOUDS BELOW 12,000 FEET WITH NO
SIGNIFICANT WEATHER AND/OR OBSTRUCTIONS TO VISIBILITY.

* THESE STATIONS ARE NOT UNDER NWS QUALITY CONTROL. THEY ALSO MAY NOT
  REPORT WEATHER SUCH AS PRECIPITATION OR FOG.

ILZ001-002-007-009-015-016-024-090500-
NORTHWEST ILLINOIS

CITY           SKY/WX    TMP DP  RH WIND       PRES   REMARKS
MOLINE         CLOUDY    18   9  68 NW16G25   29.87F WCI   3
STERLING*      CLOUDY    19   9  63 NW14G21   29.80S WCI   6
SAVANNA*       CLOUDY    18   9  68 NW12      29.84F WCI   6
$$

ILZ003-004-008-010-011-017-018-090500-
NORTH CENTRAL ILLINOIS

CITY           SKY/WX    TMP DP  RH WIND       PRES   REMARKS
ROCKFORD       CLOUDY    22  11  62 NW16      29.80S WCI   8
FREEPORT*      CLOUDY    18  10  72 NW14G20   29.82S WCI   4
ROCHELLE*      CLOUDY    21  14  75 NW14      29.79S WCI   8
DE KALB*       CLOUDY    22  16  76 NW14      29.76S WCI   9
$$

ILZ005-006-012>014-019>023-090500-
NORTHEAST ILLINOIS

CITY           SKY/WX    TMP DP  RH WIND       PRES   REMARKS
CHICAGO-OHARE  LGT SNOW  23  19  85 W13       29.74S FOG     WCI  11
CHICAGO-MIDWAY FLURRIES  25  18  74 W13       29.74S WCI  14
AURORA         CLOUDY    24  18  77 NW14      29.77S WCI  12
LANSING*       CLOUDY    26  19  76 NW12G17   29.74S WCI  15
JOLIET*        LGT SNOW  25  20  82 NW9       29.77S WCI  15
WAUKEGAN       LGT SNOW  21  19  92 NW13G18   29.72S VSB 1   WCI   9
DUPAGE AIRPORT FLURRIES  22  15  75 NW20      29.75S WCI   7
KANKAKEE*      CLOUDY    25  18  73 W13G18    29.77S WCI  14
WHEELING       LGT SNOW  22  19  89 NW15G22   29.75S FOG     WCI   9
MORRIS*        MIX PCPN  24  17  77 NW13      29.74F WCI  12
ROMEOVILLE*    MIX PCPN  24  19  83 NW13G22   29.76S WCI  12
NORTHERLY ISL    N/A     26  19  75 NW12        N/A  WCI  16
$$

LMZ740>746-090500-
SOUTHERN LAKE MICHIGAN

STATION/POSITION SKY/WX   TEMP    WIND        PRES    VSBY  WAVE
                          AIR SEA DIR/SP/G                  HT/PER
                          (F)     (DEG/KT/KT) (MB)    (MI)  (FT/S)
HARRISON CRIB              26     300/ 19/ 21   N/A
BURNHAM HARBOR             26     280/  9/ 16   N/A
CALUMET HARBOR             26     280/  8/ 12 1006.4F
BURNS HARBOR               28     280/ 14/ 17 1007.1
MICHIGAN CITY              26     270/ 17/ 20   N/A
$$

ILZ025>027-034>036-040-047-049-050-058-095>099-090500-
WEST-CENTRAL ILLINOIS

CITY           SKY/WX    TMP DP  RH WIND       PRES   REMARKS
QUINCY         FLURRIES  18  11  74 NW18      29.93F WCI   2
GALESBURG*     CLOUDY    17  11  77 NW16G22   29.87F WCI   2
MACOMB*        CLOUDY    18  14  82 NW16      29.92F WCI   4
JACKSONVILLE*  CLOUDY    22  13  70 W21       29.91S WCI   6
PITTSFIELD*    FLURRIES  20  13  73 NW12      29.94F WCI   8
$$

ILZ028>032-037-038-041>044-048-051>054-059>061-090500-
CENTRAL ILLINOIS

CITY           SKY/WX    TMP DP  RH WIND       PRES   REMARKS
PONTIAC        CLOUDY    22  17  80 W17G25    29.81S WCI   8
BLOOMINGTON    FLURRIES  19  14  81 NW20      29.82F WCI   3
DECATUR        LGT SNOW  20  13  74 W13       29.85F WCI   7
PEORIA         CLOUDY    18   9  68 NW15G22   29.87S WCI   4
LACON*         CLOUDY    18  10  71 NW13G18   29.84S WCI   5
LINCOLN*       CLOUDY    20  13  74 NW12G22   29.87S WCI   8
SPRINGFIELD    CLOUDY    20  12  71 NW14      29.89F WCI   7
TAYLORVILLE    FLURRIES  19  14  79 NW16      29.89S WCI   5
$$

ILZ033-039-045-046-055>057-062-063-090500-
EAST-CENTRAL ILLINOIS

CITY           SKY/WX    TMP DP  RH WIND       PRES   REMARKS
CHAMPAIGN      FLURRIES  20  16  84 W15       29.82F WCI   6
RANTOUL*       CLOUDY    22  17  80 NW17      29.80S WCI   8
MATTOON        FLURRIES  19  13  77 NW17      29.84S WCI   4
PARIS*         LGT SNOW  20  17  86 W17       29.82F WCI   6
$$

ILZ079-100>102-090500-
SOUTHWEST ILLINOIS

CITY           SKY/WX    TMP DP  RH WIND       PRES   REMARKS
ALTON          LGT SNOW  21  16  79 W15G26    29.95S WCI   8
BELLEVILLE     PTCLDY    23  15  70 NW20G26   29.92F WCI   9
CAHOKIA*       CLOUDY    24  13  62 NW23G29   29.94F WCI   9
SPARTA*        CLOUDY    24  17  74 NW8       29.94F WCI  15
$$

ILZ064>066-069>071-074>076-080>082-084>086-088>090-092>094-090500-
SOUTH-CENTRAL ILLINOIS

CITY           SKY/WX    TMP DP  RH WIND       PRES   REMARKS
CARBONDALE     CLOUDY    25  17  72 NW12      29.93F WCI  14
CAIRO*         CLOUDY    28  22  76 NW6       29.94F WCI  22
EFFINGHAM*     FLURRIES  21  17  84 W13       29.89S WCI   9
MARION         CLOUDY    27  18  69 NW13G20   29.93F WCI  16
MT. VERNON     CLOUDY    21  14  73 W6        29.91S WCI  14
CENTRALIA*     FLURRIES  22  17  78 NW16G26   29.91S WCI   9
SALEM*         FLURRIES  23  14  69 NW10G20   29.90S WCI  12
METROPOLIS*    CLOUDY    27  22  81 W9        29.94F WCI  18
$$

ILZ067-068-072-073-078-083-087-091-090500-
SOUTHEAST ILLINOIS

CITY           SKY/WX    TMP DP  RH WIND       PRES   REMARKS
LAWRENCEVILLE  LGT SNOW  21  17  84 NW14      29.88S FOG     WCI   8
FLORA*         FLURRIES  23  18  80 W8        29.90F WCI  14
FAIRFIELD*     CLOUDY    22  15  73 NW7       29.89F WCI  14
HARRISBURG*    FLURRIES  24  20  83 W12       29.93S WCI  13
ROBINSON*      CLOUDY    20  14  77 W13G21    29.88S WCI   7
CARMI*         LGT SNOW  22  19  88 NW10      29.91S WCI  12
$$

ABBREVIATIONS USED IN REMARKS
   TC - TEMPERATURE IN CELSIUS
  WCI - WIND CHILL INDEX
   HX - HEAT INDEX
  VSB - VISIBILITY
$$




USA.gov is the U.S. government's official web portal to all federal, state and local government web resources and services.